Location: Home
(42.5358°N, 72.7383°W)
Time: 21:24:33
(UTC-05:00)

Vanguard 2 Rocket - Pass Details

Date: 08 December 2021
Orbit: 554 x 3325 km, 32.9° (Epoch: 21 January)

Event Time Altitude Azimuth Distance (km) Brightness Sun altitude
Rises 17:16:17 0° 239° (WSW) 2,932 11.6 -10.5°
Reaches altitude 10° 17:18:27 10° 229° (SW) 2,183 10.1 -10.9°
Maximum altitude 17:22:53 32° 165° (SSE) 1,513 8.1 -11.7°
Drops below altitude 10° 17:29:37 10° 106° (ESE) 3,360 9.3 -12.8°
Enters shadow 17:30:08 - 104° (ESE) 3,542 9.4 -12.9°
Sets 17:33:47 0° 98° (E) 4,826 - -13.6°
